Regional Weather Roundup
Issued by NWS Charleston, SC

Current Version | Previous Version | Text Only | Print | Product List | Glossary Off
Versions: 1 2 3 4 5 6 7 8 9 10 11 12 13 14 15 16 17 18 19 20 21 22 23 24 25 26 27 28 29 30 31 32 33 34 35 36 37 38 39 40 41 42 43 44 45 46 47 48 49 50

000
ASUS42 KCHS 140511
RWRCHS

REGIONAL WEATHER ROUNDUP
NATIONAL WEATHER SERVICE CHARLESTON SC
1200 AM EST THU DEC 14 2017

NOTE: "FAIR" INDICATES FEW OR NO CLOUDS BELOW 12,000 FEET WITH NO
SIGNIFICANT WEATHER AND/OR OBSTRUCTIONS TO VISIBILITY.

NOT ALL STATIONS ARE QUALITY CONTROLLED. USE DATA WITH CAUTION...
ESPECIALLY DEWPOINT OBSERVATIONS.

SCZ027-030-031-034>040-042>050-140600-
...SOUTHEAST SOUTH CAROLINA...

CITY           SKY/WX    TMP DP  RH WIND       PRES   REMARKS
N CHARLESTON   CLEAR     43  30  60 SW12      29.90F
WATERFRONT PRK   N/A     47  31  53 SW6       29.76S
JOHNS ISLAND   FAIR      46  28  49 SW8       29.91S
PINOPOLIS        N/A     45  30  57 SW13      29.80F
MONCKS CORNER  FAIR      43  23  45 SW8       29.89R
SUMMERVILLE    FAIR      37  30  75 SW3       29.91R
BEAUFORT MCAS  CLEAR     44  30  57 SW8       29.91F
BEAUFORT ARPT  FAIR      43  32  65 SW6       29.91F
HILTON HEAD IS CLEAR     46  27  46 SW8       29.93F
WALTERBORO     CLEAR     39  27  60 SW6       29.90F WCI  35
ALLENDALE      FAIR      39  23  52 CALM      29.88S

...SOUTHERN MIDLANDS AND PEE DEE...

CITY           SKY/WX    TMP DP  RH WIND       PRES   REMARKS
GEORGETOWN     FAIR      43  30  61 SW12      29.88F
KINGSTREE      FAIR      39  25  56 S5        29.86S WCI  36
ORANGEBURG     CLEAR     36  24  62 SW7       29.87S WCI  30
BARNWELL         N/A     39  25  56 CALM      29.88S
AIKEN          FAIR      37  21  52 SW8       29.87F WCI  31
MANNING        FAIR      43 -13   9 MISG      29.87R
COLUMBIA       CLEAR     41  22  46 SW7       29.83F
SUMTER         CLEAR     42  19  40 SW15      29.81F
FLORENCE       CLEAR     40  24  53 SW12      29.82F WCI  33
MYRTLE BEACH   CLEAR     44  27  51 SW9       29.87F
N MYRTLE BEACH CLEAR     45  26  47 SW15G22   29.85S

$$

GAZ063-065-086>088-099>101-113>116-118-119-134>141-150-140600-
...SOUTHEAST GEORGIA...

CITY           SKY/WX    TMP DP  RH WIND       PRES   REMARKS
SAVANNAH ARPT  CLEAR     42  26  53 SW9       29.94F
HUNTER AAF     CLEAR     42  27  55 SW8       29.93S
FORT STEWART   CLEAR     39  27  61 SW3       29.92F
STATESBORO     CLEAR     44  20  38 SW6       29.91S
SYLVANIA       CLEAR     43  27  54 SW3       29.91S
CLAXTON        FAIR      43  28  54 S3        29.92F

...CSRA...CENTRAL AND FAR SOUTHEAST GEORGIA...

CITY           SKY/WX    TMP DP  RH WIND       PRES   REMARKS
THOMSON        CLEAR     41  19  42 NW8       29.91S
AUGUSTA-BUSH   CLEAR     41  22  46 SW8       29.87S
AUGUSTA-DANIEL CLEAR     43  20  39 VRB7      29.86F
SWAINSBORO     FAIR      43  25  49 W6        29.91S
VIDALIA        CLEAR     41  28  60 SW8       29.92F
EASTMAN        FAIR      44  14  29 W3        29.96R
HAZLEHURST     FAIR      46  17  31 SW7       29.92F
ALMA           CLOUDY    42  30  62 SW5       29.95F
WAYCROSS       CLOUDY    44  31  60 SW8       29.97F
JESUP          NOT AVBL
BAXLEY         FAIR      41  28  60 SW3       29.94F
BRUNSWICK      CLOUDY    45  32  61 SW10      29.98S
SAINT SIMONS   PTCLDY    46  33  60 SW10      29.97S

$$

SCZ027-028-034-036>038-045-046-048>050-GAZ119-141-140600-
...LAKE AND SUPPLEMENTAL COASTAL OBSERVATIONS...

STATION/POSITION TIME  TEMP    WIND        PRES    WAVE   SWELL
                       AIR SEA DIR/SP/G            HT/PER HT/PER/DIR
                 (UTC) (F)     (DEG/KT/KT) (MB)    (FT/S) (FT/S/D)
WINYAH BAY       0345   44     240/  7     1012.0
LAKE MURRAY      0420   45     230/ 11/ 16 1009.5S
ACE BASIN NERRS  0345   44        CALM     1013.0
FORT PULASKI     0436   44 54  230/  4/  5 1014.0F
SAPELO ISLAND    0400   45     220/  9     1015.0

$$

ANZ835-935-AMZ111-154-330-350-352-354-370-450-454-472-140600-
...C-MAN AND BUOY OBSERVATIONS...

STATION/POSITION TIME  TEMP    WIND        PRES    WAVE   SWELL
                       AIR SEA DIR/SP/G            HT/PER HT/PER/DIR
                 (UTC) (F)     (DEG/KT/KT) (MB)    (FT/S) (FT/S/D)
BUOY 41004       0450      73  250/ 23/ 29 1012.0F   6/ 5
BUOY 41008       0450   55 58  220/ 21/ 25 1014.0F   3/ 4
FOLLY BEACH CMAN 0400   49     240/ 10/ 15 1013.4F
CAPERS NEARSHORE 0408   50 56  260/ 21/ 29 1012.0S
FRIPP NEARSHORE  0408   50 55  220/ 19/ 37 1013.1R


STATION/POSITION TIME  TEMP    WIND        PRES    WAVE   SWELL
                       AIR SEA DIR/SP/G            HT/PER HT/PER/DIR
                 (UTC) (F)     (DEG/KT/KT) (MB)    (FT/S) (FT/S/D)
5E ST. MARYS GA  0430      62                N/A     2/ 3
FRYING PAN BUOY  0450   56 63  250/ 23/ 29 1010.8F   6/ 6   2/120/10
BUOY 41025       0450   57 74  220/ 23/ 31 1009.0F   5/ 7   3/210/ 7
CAPE LOOKOUT NC  0400          210/ 16/ 23 1010.0F
BUOY 41002       0450   63 74  240/ 17/ 21 1012.9F   8/ 8   5/330/ 8
BUOY 41010       NOT AVBL
ST AUGUSTINE FL  0500   45 62  230/  6/  8 1017.1F


$$




USA.gov is the U.S. government's official web portal to all federal, state and local government web resources and services.